Simultaneous Nadir Overpasses (SNOs) Predictions

Prediction of SNOs between AQUA and METOP-B Satellite Orbit:

Table of predicted SNOs for the next 14.0 days since TLE Epoch: 1/4/2014
Index Date (AQUA) Time (AQUA) Lat,Lon (AQUA) SZA (AQUA ) Date (METOP-B) Time (METOP-B) Lat,Lon (METOP-B) SZA (METOP-B ) Distance(km) Time Diff (sec)
1 01/05/2014 23:21:00 -73.68, 4.30 83.78 01/05/2014 23:20:21 -73.66, 4.20 83.79 3.36 39
2 01/06/2014 00:10:29 73.75, 171.78 96.30 01/06/2014 00:10:59 73.74, 171.73 96.29 1.73 30
3 01/08/2014 18:55:12 -73.71, 70.70 84.10 01/08/2014 18:54:43 -73.69, 70.68 84.11 1.56 29
4 01/08/2014 19:44:41 73.78,-121.84 95.98 01/08/2014 19:45:21 73.77,-121.79 95.97 1.89 40
5 01/11/2014 13:39:43 73.03, -29.09 94.79 01/11/2014 13:38:37 72.97, -31.86 94.83 90.45 66
6 01/11/2014 14:29:21 -73.69, 137.20 84.53 01/11/2014 14:29:04 -73.71, 137.14 84.50 3.34 17
7 01/11/2014 15:18:50 73.77, -55.35 95.56 01/11/2014 15:19:42 73.80, -55.33 95.58 3.03 52
8 01/14/2014 09:14:01 73.50, 36.43 94.81 01/14/2014 09:12:50 73.43, 35.58 94.80 27.75 71
9 01/14/2014 10:03:31 -73.73,-156.42 84.95 01/14/2014 10:03:26 -73.72,-156.42 84.95 0.19 5
10 01/14/2014 10:53:00 73.81, 11.02 95.14 01/14/2014 10:54:04 73.81, 11.12 95.13 2.98 64
11 01/17/2014 04:48:12 73.65, 102.58 94.46 01/17/2014 04:47:08 73.64, 102.47 94.47 3.57 64
12 01/17/2014 05:37:39 -73.72, -89.93 85.48 01/17/2014 05:37:48 -73.73, -90.00 85.47 2.83 9




NCC Satellite Simultaneous Nadir Overpasses (SNOs) Prediction Service
